STARLINK-32034, 60297

Orbit data source: Space-Track

STARLINK-32034, 60297 is a payload satellite owned by SpaceX/Seattle (US) in LEO that was launched on Sun, 28 Jul 2024 UTC via an FALCON 9 launch vehicle from the Air Force Eastern Test Range (AFETR). Payload-class satellites include a variety of spacecraft equipped with specific instruments for various scientific and technological missions. These include communications satellites like Starlink; space stations such as the ISS; scientific satellites like the Hubble; Earth observation satellites from companies like Planet Labs, Umbra, and HawkEye 360; GPS; miniature CubeSats for education and research; and military/defense satellites.

Loading next visibility...
Identifier
60297, 2024-132V
Orbit
LEO
Country
Flag of USUS
Related business
Manufacturer
SpaceX/Seattle
Mission
Operational Commercial Communications
Bus & Motor
STARLINK V2M, Unknown motor
Mass
730 kg wet, ~700 kg dry
Launch date (UTC)
2024-07-28 (2 years ago)
Launch vehicle
FALCON 9
Launch site
Air Force Eastern Test Range (AFETR)
Object type
Payload
Rocket body
Debris
Shape & HBR
Box + 2 Pan, 17.7 m
Radar Cross Section
33.884 m², Large (>1 m²)

Expand to show TLE details & history
Last TLE update: 10 hours ago

TLE from 10 hours ago
0 STARLINK-32034
1 60297U 24132V   26120.25002315 -.00011532  00000-0 -36026-3 0  9999
2 60297  53.1578 172.9942 0001323  88.9867 273.4503 15.31713817  5864
Epoch: 2026-04-30T06:00Z
TLE epoch observation values (Epoch: 2026-04-30T06:00:02.000Z)
Latitude
1.86939°
Longitude
-133.81995°
Altitude
471.321 km
Speed
7.632 km/s
True Right ascension
11h 37m 33s
True Declination
1° 51' 28"
Sunlit
Object was in full shadow at epoch
Visualization orbit readout
Latitude
Unknown
Longitude
Unknown
Altitude
Unknown
Speed
Unknown
Apparent Right ascension
Unknown
Apparent Declination
Unknown
Sunlit
N/A
Visualization observer readout
Local Sidereal Time
23:59:11
Azimuth
Unknown
Elevation
Unknown
Doppler factor
Unknown
Orbital elements
Apogee altitude
471.862 km
Perigee altitude
470.05 km
Semi-major axis
6,849.093 km
Eccentricity
0.00013
Inclination
53.1578°
RAAN
172.9942°
Arg. of periapsis
88.9867°
True anomaly
273.43517°
Mean anomaly
273.4503°
Eccentric anomaly
273.44273°
Mean motion
3.82907 °/min
Orbital period
94.02 mins
BSTAR
-0.00036026
Loading maneuver chart data...
Computing Atmospheric mass density...
Loading historical data...
Loading historical data...
Loading historical data...
Loading historical data...
Loading historical data...
Loading historical data...
Loading historical data...

Documentation

Showing up to 5 results
|